Home   Weather   Haifa   Past weeks

Flag for Israel Past Weather in Haifa, Israel — Yesterday and Last 2 Weeks

Now
70 °F

Sunny.


Feels Like: 70 °F
Forecast: 62 / 75 °F
Wind: 7 mph from Northwest

Location: Sde-Haifa Haifa

Current Time: Apr 30, 2017 at 8:03:18 pm

Latest Report: Apr 30, 2017 at 6:50 pm


Visibility: 10 mi

Pressure: 29.74 "Hg

Humidity: 83%

Dew Point: 64 °F

Location of HaifaLocation

Past Weather in Haifa — Graph

°F

Haifa Temperature Yesterday

Maximum temperature yesterday: 73 °F (at 11:50 am)
Minimum temperature yesterday: 57 °F (at 6:00 am)
Average temperature yesterday: 68 °F

High & Low Weather Summary for the Past Weeks

 TemperatureHumidityPressure
High102 °F (Apr 22, 3:50 pm)94% (Apr 16, 4:50 am)30.12 "Hg (Apr 16, 4:50 am)
Low55 °F (Apr 19, 6:30 am)8% (Apr 22, 2:50 pm)29.62 "Hg (Apr 22, 4:50 pm)
Average69 °F64%29.98 "Hg
* Reported Apr 15 6:50 pm — Apr 30 6:50 pm, Haifa, Weather by CustomWeather, © 2017

Note: Actual official high and low records may vary slightly from our data, if they occured in-between our weather recording intervals... More about our weather records

Advertising

Haifa Weather History for the Previous 24 Hours

Scroll right to see more
 ConditionsComfort  
Time TempWeatherWind HumidityBarometerVisibility
6:50 pm
Sun, Apr 30
70 °FSunny.7 mph83%29.74 "Hg10 mi
5:50 pm72 °FSunny.9 mph78%29.77 "Hg10 mi
4:50 pm72 °FSunny.7 mph73%29.77 "Hg10 mi
3:50 pm73 °FSunny.8 mph74%29.80 "Hg10 mi
2:50 pm72 °FSunny.9 mph69%29.80 "Hg10 mi
1:50 pm72 °FSunny.10 mph73%29.80 "Hg10 mi
12:50 pm73 °FSunny.12 mph69%29.83 "Hg10 mi
11:50 am72 °FSunny.8 mph73%29.83 "Hg10 mi
10:50 am70 °FSunny.9 mph73%29.86 "Hg10 mi
9:50 am70 °FSunny.7 mph64%29.86 "Hg10 mi
8:50 am72 °FSunny.1 mph57%29.86 "Hg10 mi
7:50 am64 °FSunny.2 mph78%29.86 "Hg10 mi
6:50 am61 °FClear.3 mph77%29.86 "Hg6 mi
6:30 am59 °FClear.3 mph77%29.86 "Hg6 mi
5:50 am59 °FClear.3 mph82%29.86 "Hg5 mi
4:50 am63 °FClear.2 mph83%29.86 "Hg10 mi
9:50 pm
Sat, Apr 29
66 °FClear.3 mph78%29.89 "Hg10 mi
8:50 pm66 °FClear.3 mph83%29.89 "Hg10 mi
Weather by CustomWeather, © 2017

See weather overviewHow to use our weather pages